706  
SXUS52 KJAX 200413  
OSOJAX  
OTHER SURFACE OBSERVATIONS  
NATIONAL WEATHER SERVICE JACKSONVILLE FL  
1200 AM EDT SAT OCT 20 2018  
 
FLZ020>025-030>033-035>038-040-200500-   
..FLORIDA
 
 
 
CITY SKY/WX TMP DP RH WIND PRES REMARKS  
CECIL FIELD CLOUDY 73 70 88 CALM 30.12F  
HERLONG FIELD NOT AVBL  
FERNANDINA BCH NOT AVBL  
LAKE CITY FAIR 70 68 94 CALM 30.13F  
JUNIPER SPGS NOT AVBL  
BUNNELL NOT AVBL  
KEYSTONE HGTS MOCLDY 73 73 100 CALM 30.12F  

 
 
GAZ132>136-149>154-162>166-200500-   
..GEORGIA
 
 
 
CITY SKY/WX TMP DP RH WIND PRES REMARKS  
JESUP FAIR 70 66 88 CALM 30.13S  
HOMERVILLE FAIR 68 66 94 CALM 30.13F  
SWAINSBORO FAIR 63 63 100 CALM 30.14F  
CORDELE NOT AVBL  
EASTMAN FAIR 61 59 94 CALM 30.16F  

 
 
PLEASE NOTE: THESE OBSERVATIONS ARE NOT QUALITY CONTROLLED AND MAY  
NOT BE AVAILABLE AT ALL TIMES.  

 
 
 
CLICK HERE TO GO TO PREVIOUS BULLETINS.

The Nexlab FL Page
The Nexlab GA Page Main Text Page